Location: Ore Lake
(42.4733°N, 83.8017°W)
Time: 07:21:07
(UTC-05:00)

Daily predictions for brighter satellites

Satellite Brightness Start Highest point End
(mag) Time Altitude Azimuth Time Altitude Azimuth Time Altitude Azimuth
H-2A R/B 3.5 18:41:51 10° SE 18:45:23 33° ENE 18:48:54 10° N
Cosmos 44 Rocket 3.4 18:42:16 10° NNW 18:47:17 64° NE 18:52:22 10° SE
DNEPR-1 R/B 4.4 18:44:07 10° SW 18:48:11 48° NW 18:52:28 10° NNE
SPOT 3 Rocket 3.7 18:43:26 10° SSE 18:48:31 57° ENE 18:53:39 10° N
SJ-6B 4.3 18:47:17 10° ESE 18:49:48 17° ENE 18:52:21 10° NNE
CZ-4C R/B 4.1 18:47:33 10° NNW 18:52:47 22° NNE 18:58:31 10° E
MOS 1 4.3 18:47:36 10° SSE 18:53:16 81° ENE 18:58:58 10° NNW
Resurs 01 Rocket 3.6 18:52:43 10° ENE 18:53:41 11° ENE 18:54:41 10° NE
Cosmos 1420 Rocket 4.0 18:48:34 10° NNW 18:53:50 64° ENE 18:59:05 10° SSE
SL-8 R/B 3.8 18:52:27 10° WSW 18:57:14 80° NNW 19:02:02 10° ENE
Aureole 3 3.9 18:52:00 10° S 18:57:44 75° E 19:02:14 10° NNE
Meteor 1-20 Rocket 4.4 18:52:33 10° S 18:58:06 54° E 19:03:45 10° NNE
Cosmos 1378 Rocket 3.7 18:55:38 10° N 18:59:57 51° ENE 19:04:16 10° SSE
Cosmos 1812 2.7 18:56:26 10° N 19:00:20 88° E 19:04:12 10° S
Cosmos 405 3.5 18:57:05 10° SSW 19:00:32 64° W 19:04:03 10° N
Okean 1 3.8 18:59:45 10° N 19:03:28 36° ENE 19:07:08 10° SE
Meteor 1-14 Rocket 4.3 18:57:49 10° S 19:03:35 73° E 19:09:30 10° NNE
MOS 1-B Rocket 4.3 19:00:12 10° S 19:06:30 75° WSW 19:12:12 10° NNW
CZ-2D R/B 4.5 19:04:14 10° ESE 19:07:18 23° ENE 19:10:22 10° NNE
ALOS 3.0 19:02:51 10° S 19:07:26 59° W 19:12:04 10° NNW
Cosmos 2263 Rocket 3.7 19:06:17 10° ESE 19:08:45 13° E 19:09:12 13° E
Cosmos 44 3.9 19:04:28 10° NW 19:09:29 66° WSW 19:14:42 10° SSE
Cosmos 1782 Rocket 4.1 19:06:55 10° SSE 19:11:00 37° E 19:15:05 10° NNE
Cosmos 2082 4.5 19:05:54 10° SW 19:11:24 55° WNW 19:16:58 10° NNE
SeaSat 1 3.4 19:07:33 10° ESE 19:11:36 28° NE 19:15:45 10° N
CZ-4 R/B 4.2 19:08:49 10° SSW 19:12:04 23° W 19:15:17 10° NW
USA 215 3.9 19:08:48 10° ENE 19:14:41 35° SE 19:20:32 10° SSW
Tsikada Rocket 4.4 19:09:50 10° SSE 19:15:45 41° E 19:21:41 10° NNE
Cosmos 1602 4.4 19:12:28 10° SSE 19:15:56 31° E 19:19:24 10° NNE
COSMO-SKYMED 1 3.9 19:15:07 10° N 19:19:13 42° WNW 19:23:19 10° SW
USA 186 3.8 19:21:16 15° NE 19:21:16 15° NE 19:22:27 10° NNE
Sich 1 Rocket 3.5 19:16:55 10° S 19:21:22 65° E 19:25:48 10° NNE
CZ-3 Stage 3 4.1 19:19:54 10° WSW 19:22:33 15° SSW 19:24:24 10° SSE
Meteor 1-18 Rocket 4.2 19:18:20 10° N 19:23:57 90° W 19:29:30 10° S
Envisat 3.5 19:21:12 10° SE 19:25:50 38° ENE 19:30:31 10° N
Cosmos 1464 Rocket 4.0 19:20:47 10° N 19:26:56 88° W 19:33:04 10° S
Meteor 1-25 Rocket 4.4 19:25:11 10° SSW 19:30:42 74° W 19:36:18 10° N
Meteor 2-4 Rocket 4.3 19:25:51 10° N 19:31:08 35° ENE 19:36:06 11° SE
Okean 3 4.5 19:27:12 10° NNW 19:31:14 49° W 19:35:16 10° SSW
EO 1 Del DPAF 3.8 19:27:27 10° N 19:31:14 61° WNW 19:34:59 10° SSW
Cosmos 2227 4.3 19:27:33 10° S 19:33:06 52° ESE 19:38:36 10° NNE
Meteor 1-4 Rocket 3.3 19:30:04 10° SSE 19:33:08 29° E 19:33:28 29° E
HJ-1C 3.4 19:30:17 10° SSE 19:33:39 61° ENE 19:37:02 10° N
Okean 2 Rocket 3.4 19:30:12 10° SSE 19:34:18 40° E 19:38:26 10° NNE
Meteor 1-19 Rocket 4.2 19:30:28 10° N 19:35:53 54° ENE 19:41:18 10° SSE
Cosmos 1437 Rocket 2.7 19:32:30 10° S 19:36:33 75° E 19:40:39 10° NNE
Cosmos 494 Rocket 4.5 19:32:08 10° SSE 19:36:53 37° ESE 19:41:37 10° NE
Thor Agena Rocket 3.7 19:32:49 10° NNE 19:37:45 48° E 19:42:36 10° S
Cosmos 1110 Rocket 4.2 19:35:01 10° N 19:40:08 49° ENE 19:43:58 17° SE
Cosmos 1269 Rocket 3.9 19:35:37 10° SSW 19:40:54 84° ESE 19:46:13 10° NNE
USA 32 4.0 19:37:15 10° S 19:42:29 88° W 19:47:45 10° N
Meteor 1-11 Rocket 4.0 19:38:21 10° SSE 19:43:34 43° E 19:48:56 10° NNE
Cosmos 921 Rocket 3.3 19:39:11 10° NNW 19:43:42 75° WSW 19:48:09 10° S
CENTAUR R/B 3.0 19:40:22 10° SW 19:46:22 63° NW 19:53:16 10° NNE
USA 267 4.2 19:45:34 21° ENE 19:48:56 34° NNE 19:54:39 10° NW
YAOGAN 6 4.4 19:50:49 18° NNE 19:50:49 18° NNE 19:52:04 10° NNE
Gbstr 26 Del rocket 2.7 19:47:07 10° SW 19:50:45 57° SE 19:51:33 46° E
CRYOSAT 2 4.2 19:50:07 10° N 19:55:01 81° E 19:59:52 10° S
Cosmos 1943 3.5 19:52:19 10° NNW 19:57:44 45° ENE 19:59:20 36° E
Cosmos 2346 Rocket 4.3 19:54:30 10° S 20:00:39 70° E 20:06:46 10° NNE
Cosmos 1939 Rocket 3.5 20:02:39 39° NE 20:02:39 39° NE 20:05:51 10° N
Cosmos 2034 Rocket 4.5 19:57:26 10° NNW 20:03:45 63° W 20:09:59 10° S
H-2A R/B 4.3 20:09:17 11° NNE 20:09:17 11° NNE 20:09:32 10° NNE
COSMOS 2455 2.8 20:02:47 10° S 20:08:39 57° ESE 20:11:40 29° NE
Cosmos 1331 Rocket 3.9 20:05:49 10° NNW 20:11:10 80° ENE 20:13:40 32° SSE
Resurs 1-3 3.5 20:12:36 64° E 20:12:47 65° ENE 20:17:09 10° N
OAO 2 Rocket 4.1 20:09:17 10° WSW 20:13:44 34° S 20:14:27 33° SSE
Cosmos 1634 Rocket 3.9 20:09:05 10° N 20:15:14 66° E 20:19:12 23° SSE
Spot 2 Rocket 3.5 20:15:08 55° E 20:15:32 56° ENE 20:20:31 10° N
Cosmos 1975 Rocket 4.1 20:12:33 10° NNW 20:16:49 46° W 20:21:05 10° SSW
SL-16 R/B 4.4 20:12:40 10° NW 20:17:09 25° WSW 20:21:37 10° SSW
Geosat 4.0 20:17:26 55° ESE 20:17:26 55° ESE 20:22:16 10° SSW
BREEZE-M DEB (TANK) 2.5 20:15:07 10° WNW 20:17:03 54° W 20:17:03 54° W
ERS-2 4.5 20:14:46 10° SSW 20:17:51 25° W 20:20:56 10° NW
CZ-3B R/B 3.9 20:10:14 10° SW 20:22:42 83° SE 20:23:28 62° ENE
Meteor 1-23 Rocket 4.2 20:17:01 10° N 20:22:48 60° ENE 20:23:35 55° ESE
SJ-6B 4.3 20:20:42 10° SSW 20:24:11 35° W 20:27:45 10° NNW
Cosmos 2142 Rocket 4.4 20:19:11 10° N 20:25:32 68° E 20:27:51 40° SSE
Cosmos 2251 Rocket 3.9 20:22:11 10° S 20:25:57 45° SSE 20:25:57 45° SSE
Resurs 01 Rocket 1.5 20:29:28 84° WSW 20:29:29 84° W 20:33:56 10° NNW
ATLAS CENTAUR R/B 2.4 20:27:35 10° NNW 20:30:20 37° N 20:30:20 37° N
Meteor 2-9 4.4 20:26:45 10° S 20:32:09 79° E 20:37:39 10° NNE
Cosmos 1603 4.4 20:30:50 10° NNW 20:36:18 52° WSW 20:39:46 22° S
Cosmos 1302 Rocket 4.0 20:36:35 10° NNW 20:41:14 70° N 20:41:14 70° N
CZ-4C R/B 2.8 20:35:25 10° NNW 20:42:34 70° NE 20:43:53 60° ESE
SeaSat 1 3.4 20:47:22 34° SSW 20:48:55 44° WSW 20:53:38 10° NW
Cosmos 2263 Rocket 2.3 20:46:16 10° SSW 20:51:04 67° SW 20:51:04 67° SW
USA 215 3.4 20:56:01 47° NNE 20:57:59 71° NW 21:04:28 10° WSW
USA 267 3.7 21:32:55 56° NW 21:32:55 56° NW 21:37:57 10° NW
